Location: Cardiff
(53.7833°N, 113.6000°W)
Time: 21:35:01
(UTC+00:00)

Oscar 19 - Pass Details

Date: 11 December 2023
Orbit: 771 x 789 km, 98.9° (Epoch: 04 March)

Event Time Altitude Azimuth Distance (km) Brightness Sun altitude
Rises 13:42:50 0° 11° (NNE) 3,278 13.8 -16.2°
Reaches altitude 10° 13:45:20 10° 3° (N) 2,349 13.0 -15.9°
Maximum altitude 13:49:56 34° 300° (WNW) 1,287 11.2 -15.2°
Drops below altitude 10° 13:54:32 10° 237° (WSW) 2,346 12.8 -14.6°
Sets 13:57:02 0° 229° (SW) 3,273 13.6 -14.2°
